Regional Weather Roundup
Issued by NWS

Home | Current Version | Previous Version | Text Only | Print | Product List | Glossary Off
Versions: 1 2 3 4 5 6 7 8 9 10 11 12 13 14 15 16 17 18 19 20 21 22 23 24 25 26 27 28 29 30 31 32 33 34 35 36 37 38 39 40 41 42 43 44 45 46 47 48 49 50

000
ASUS43 KLMK 181202
RWRKY
KENTUCKY REGIONAL WEATHER ROUNDUP
NATIONAL WEATHER SERVICE LOUISVILLE KY
800 AM EDT THU SEP 18 2014

NOTE "FAIR" INDICATES FEW OR NO CLOUDS BELOW 12,000 FEET
WITH NO SIGNIFICANT WEATHER AND/OR OBSTRUCTIONS TO VISIBILITY.

KYZ001>023-026-027-061>063-070>075-181300-
WESTERN AND SOUTH CENTRAL KENTUCKY

CITY           SKY/WX    TMP DP  RH WIND       PRES   REMARKS
PADUCAH        CLOUDY    66  60  81 NE3       29.98R
HENDERSON      MOCLDY    57  52  82 NE3       30.02R
OWENSBORO      PTCLDY    61  54  77 NE5       30.02R
HOPKINSVILLE   PTCLDY    58  58 100 NE3       29.99S
BOWLING GREEN  PTCLDY    55  53  93 CALM      30.01S
GLASGOW        NOT AVBL
$$

KYZ024-025-028>034-038-045-046-053-181300-
NORTH CENTRAL KENTUCKY

CITY           SKY/WX    TMP DP  RH WIND       PRES   REMARKS
LOUISVILLE/SDF CLOUDY    59  53  80 N6        30.04R
LOUISVILLE/LOU CLOUDY    58  52  80 N3        30.06R
FORT KNOX      NOT AVBL
$$

KYZ035>037-039>044-047>052-055>060-089>105-181300-
NORTHEAST KENTUCKY

CITY           SKY/WX    TMP DP  RH WIND       PRES   REMARKS
LEXINGTON      PTCLDY    56  50  80 NE5       30.04R
COVINGTON      PTCLDY    53  48  83 CALM      30.06R
FRANKFORT      CLOUDY    55  52  89 CALM      30.04R
$$

KYZ054-064>069-076>088-106>120-181300-
SOUTHEAST KENTUCKY

CITY           SKY/WX    TMP DP  RH WIND       PRES   REMARKS
JACKSON        PTCLDY    54  51  90 CALM      30.03S
LONDON         PTCLDY    56  53  90 CALM      30.04R FOG
SOMERSET       NOT AVBL
MIDDLESBORO    CLOUDY    56  56 100 CALM      30.03R FOG
MONTICELLO     MOSUNNY   55  54  97 CALM      30.04R FOG
$$



USA.gov is the U.S. government's official web portal to all federal, state and local government web resources and services.